Find Starlink 31623

NORAD ID: 59272 Int'l Des: 2024-050 Owner: SPXS Country: US Constellation: starlink operational
LEOCIRCULAR

現在のビュー

3D地球を読み込み中...

About Starlink 31623

Starlink 31623 (NORAD 59272) is a starlink constellation satellite (v2 mini) launched Mar 19, 2024 by SPXS of US. It operates in LEO, CIRCULAR orbit with a mass of 730.00 kg.

Starlink 31623について

説明を読み込み中...

次回通過

Passes for default location (London). Set your location on the main map for personalized predictions.

高度履歴

Loading altitude history...

軌道要素

1 59272U 24050U 26178.28974763 -.00000142 00000-0 73111-5 0 9992
2 59272 53.1614 31.5750 0001038 88.8849 271.2271 15.30193316127335
Epoch: Jun 27, 2026 • Age: 6 hours

現在のステータス

高度 475.2 km
速度 7.63 km/s
衛星直下点 11.96°N, 75.57°W
打ち上げ日 Mar 19, 2024
運用期間 2.2 years
タイプ internet

技術仕様

分類 Payload
質量 730.00 kg
乾燥質量 700.00 kg
総質量 730.00 kg
長さ 0.30 m
直径 4.10 m
スパン 29.00 m
形状 Box + pan
製造者 SPXS
バスタイプ Starlink V2M
フェーズステータス In Orbit
所有者/国 SPXS/US

Most Searched